Station Historical Data
Daily Summary for August 22, 2017 Units:  English    Metric   Both
« Previous Day
Next Day »
Daily Weekly Monthly Yearly Custom
  High: Low: Average:
Temperature: 94.5 °F 70.9 °F 80.5 °F
Dew Point: 74.6 °F 65.7 °F 70.2 °F
Humidity: 92% 42% 73%
Wind Speed: 1.0mph 0.0mph 0mph
Wind Gust: 3.0mph - -
Wind- - SW
Pressure: 30.16 in 29.96 in -
Precipitation: 0.00 in    
Historical Graphs
 
 
Tabular Data for August 22, 2017
Time Temperature Dew Point Pressure Wind Wind Speed Wind Gust Humidity Rainfall Rate (Hourly) solar Conditions
00:00 75.4 °F 70.6 °F 30.16 in Calm     85% 0.00 in WeatherDisplay:10.37 W/m2 CLR
00:05 75.3 °F 70.5 °F 30.16 in Calm     85% 0.00 in WeatherDisplay:10.37 W/m2 CLR
00:10 75.2 °F 70.4 °F 30.16 in Calm     85% 0.00 in WeatherDisplay:10.37 W/m2 CLR
00:15 75.1 °F 70.3 °F 30.16 in Calm     85% 0.00 in WeatherDisplay:10.37 W/m2 CLR
00:20 75.1 °F 70.3 °F 30.16 in Calm     85% 0.00 in WeatherDisplay:10.37 W/m2 CLR
00:25 74.9 °F 70.1 °F 30.16 in Calm     85% 0.00 in WeatherDisplay:10.37 W/m2 CLR
00:30 74.8 °F 70.4 °F 30.16 in Calm     86% 0.00 in WeatherDisplay:10.37 W/m2 CLR
00:35 74.7 °F 70.2 °F 30.16 in Calm     86% 0.00 in WeatherDisplay:10.37 W/m2 CLR
00:40 74.6 °F 70.1 °F 30.16 in Calm     86% 0.00 in WeatherDisplay:10.37 W/m2 CLR
00:45 74.5 °F 70.4 °F 30.16 in Calm     87% 0.00 in WeatherDisplay:10.37 W/m2 CLR
00:50 74.4 °F 70.3 °F 30.16 in Calm     87% 0.00 in WeatherDisplay:10.37 W/m2 CLR
00:55 74.4 °F 70.3 °F 30.15 in Calm     87% 0.00 in WeatherDisplay:10.37 W/m2 CLR
01:00 74.3 °F 70.2 °F 30.15 in Calm     87% 0.00 in WeatherDisplay:10.37 W/m2 CLR
01:05 74.3 °F 70.2 °F 30.15 in Calm     87% 0.00 in WeatherDisplay:10.37 W/m2 CLR
01:10 74.2 °F 70.1 °F 30.15 in Calm     87% 0.00 in WeatherDisplay:10.37 W/m2 CLR
01:15 74.1 °F 70.3 °F 30.15 in Calm     88% 0.00 in WeatherDisplay:10.37 W/m2 CLR
01:20 74.0 °F 70.2 °F 30.15 in Calm     88% 0.00 in WeatherDisplay:10.37 W/m2 CLR
01:25 74.0 °F 70.2 °F 30.15 in Calm     88% 0.00 in WeatherDisplay:10.37 W/m2 CLR
01:30 74.0 °F 70.2 °F 30.15 in Calm     88% 0.00 in WeatherDisplay:10.37 W/m2 CLR
01:35 74.0 °F 70.2 °F 30.15 in Calm     88% 0.00 in WeatherDisplay:10.37 W/m2 CLR
01:40 74.1 °F 70.3 °F 30.15 in Calm     88% 0.00 in WeatherDisplay:10.37 W/m2 CLR
01:45 74.1 °F 70.3 °F 30.14 in Calm     88% 0.00 in WeatherDisplay:10.37 W/m2 CLR
01:50 74.2 °F 70.4 °F 30.14 in Calm     88% 0.00 in WeatherDisplay:10.37 W/m2 CLR
01:55 74.2 °F 70.4 °F 30.14 in Calm     88% 0.00 in WeatherDisplay:10.37 W/m2 CLR
02:00 74.2 °F 70.4 °F 30.13 in Calm     88% 0.00 in WeatherDisplay:10.37 W/m2 CLR
02:05 74.2 °F 70.4 °F 30.13 in Calm     88% 0.00 in WeatherDisplay:10.37 W/m2 CLR
02:10 74.2 °F 70.4 °F 30.13 in Calm     88% 0.00 in WeatherDisplay:10.37 W/m2 CLR
02:15 74.2 °F 70.4 °F 30.13 in Calm     88% 0.00 in WeatherDisplay:10.37 W/m2 CLR
02:20 74.3 °F 70.2 °F 30.13 in Calm     87% 0.00 in WeatherDisplay:10.37 W/m2 FEW
02:25 74.3 °F 70.2 °F 30.13 in Calm     87% 0.00 in WeatherDisplay:10.37 W/m2 FEW
02:30 74.4 °F 70.3 °F 30.12 in Calm     87% 0.00 in WeatherDisplay:10.37 W/m2 FEW
02:35 74.5 °F 70.1 °F 30.13 in Calm     86% 0.00 in WeatherDisplay:10.37 W/m2 FEW
02:40 74.6 °F 70.1 °F 30.12 in Calm     86% 0.00 in WeatherDisplay:10.37 W/m2 FEW
02:45 74.6 °F 70.1 °F 30.12 in Calm     86% 0.00 in WeatherDisplay:10.37 W/m2 FEW
02:50 74.5 °F 70.0 °F 30.12 in Calm     86% 0.00 in WeatherDisplay:10.37 W/m2 FEW
02:55 74.5 °F 70.0 °F 30.12 in Calm     86% 0.00 in WeatherDisplay:10.37 W/m2 FEW
03:00 74.4 °F 69.9 °F 30.12 in Calm     86% 0.00 in WeatherDisplay:10.37 W/m2 FEW
03:05 74.4 °F 69.9 °F 30.12 in Calm     86% 0.00 in WeatherDisplay:10.37 W/m2 FEW
03:10 74.3 °F 70.2 °F 30.12 in Calm     87% 0.00 in WeatherDisplay:10.37 W/m2 FEW
03:15 74.3 °F 69.8 °F 30.11 in Calm     86% 0.00 in WeatherDisplay:10.37 W/m2 FEW
03:20 74.3 °F 70.2 °F 30.11 in Calm     87% 0.00 in WeatherDisplay:10.37 W/m2 CLR
03:30 74.2 °F 70.1 °F 30.11 in Calm     87% 0.00 in WeatherDisplay:10.37 W/m2 CLR
03:35 74.1 °F 70.0 °F 30.11 in Calm     87% 0.00 in WeatherDisplay:10.37 W/m2 CLR
03:40 74.1 °F 70.0 °F 30.11 in Calm     87% 0.00 in WeatherDisplay:10.37 W/m2 CLR
03:45 74.0 °F 69.9 °F 30.11 in Calm     87% 0.00 in WeatherDisplay:10.37 W/m2 CLR
03:55 73.9 °F 69.8 °F 30.10 in Calm     87% 0.00 in WeatherDisplay:10.37 W/m2 CLR
04:00 73.8 °F 69.7 °F 30.10 in Calm     87% 0.00 in WeatherDisplay:10.37 W/m2 CLR
04:05 73.7 °F 69.9 °F 30.10 in Calm     88% 0.00 in WeatherDisplay:10.37 W/m2 CLR
04:10 73.6 °F 69.8 °F 30.10 in Calm     88% 0.00 in WeatherDisplay:10.37 W/m2 CLR
04:15 73.5 °F 69.7 °F 30.10 in Calm     88% 0.00 in WeatherDisplay:10.37 W/m2 CLR
04:20 73.4 °F 69.6 °F 30.10 in Calm     88% 0.00 in WeatherDisplay:10.37 W/m2 CLR
04:25 73.3 °F 69.5 °F 30.10 in Calm     88% 0.00 in WeatherDisplay:10.37 W/m2 CLR
04:30 73.2 °F 69.4 °F 30.09 in Calm     88% 0.00 in WeatherDisplay:10.37 W/m2 CLR
04:35 73.1 °F 69.7 °F 30.09 in Calm     89% 0.00 in WeatherDisplay:10.37 W/m2 CLR
04:40 73.0 °F 69.6 °F 30.09 in Calm     89% 0.00 in WeatherDisplay:10.37 W/m2 CLR
04:45 72.9 °F 69.5 °F 30.09 in Calm     89% 0.00 in WeatherDisplay:10.37 W/m2 CLR
04:50 72.9 °F 69.4 °F 30.09 in Calm     89% 0.00 in WeatherDisplay:10.37 W/m2 CLR
04:55 72.8 °F 69.4 °F 30.09 in Calm     89% 0.00 in WeatherDisplay:10.37 W/m2 CLR
05:00 72.7 °F 69.3 °F 30.09 in Calm     89% 0.00 in WeatherDisplay:10.37 W/m2 CLR
05:05 72.6 °F 69.2 °F 30.08 in Calm     89% 0.00 in WeatherDisplay:10.37 W/m2 CLR
05:10 72.5 °F 69.1 °F 30.08 in Calm     89% 0.00 in WeatherDisplay:10.37 W/m2 CLR
05:15 72.5 °F 69.4 °F 30.08 in Calm     90% 0.00 in WeatherDisplay:10.37 W/m2 CLR
05:20 72.4 °F 69.3 °F 30.08 in Calm     90% 0.00 in WeatherDisplay:10.37 W/m2 CLR
05:30 72.2 °F 69.1 °F 30.08 in Calm     90% 0.00 in WeatherDisplay:10.37 W/m2 CLR
05:35 72.1 °F 69.0 °F 30.08 in Calm     90% 0.00 in WeatherDisplay:10.37 W/m2 CLR
05:40 72.0 °F 68.9 °F 30.08 in Calm     90% 0.00 in WeatherDisplay:10.37 W/m2 CLR
05:45 71.9 °F 68.8 °F 30.08 in Calm     90% 0.00 in WeatherDisplay:10.37 W/m2 CLR
05:50 71.9 °F 68.8 °F 30.08 in Calm     90% 0.00 in WeatherDisplay:10.37 W/m2 CLR
05:55 71.8 °F 68.7 °F 30.08 in Calm     90% 0.00 in WeatherDisplay:10.37 W/m2 CLR
06:00 71.7 °F 68.6 °F 30.08 in Calm     90% 0.00 in WeatherDisplay:10.37 W/m2 CLR
06:05 71.6 °F 68.8 °F 30.08 in Calm     91% 0.00 in WeatherDisplay:10.37 W/m2 CLR
06:10 71.5 °F 68.7 °F 30.09 in Calm     91% 0.00 in WeatherDisplay:10.37 W/m2 CLR
06:15 71.4 °F 68.7 °F 30.09 in Calm     91% 0.00 in WeatherDisplay:10.37 W/m2 CLR
06:20 71.4 °F 68.6 °F 30.09 in Calm     91% 0.00 in WeatherDisplay:10.37 W/m2 CLR
06:25 71.3 °F 68.6 °F 30.09 in Calm     91% 0.00 in WeatherDisplay:10.37 W/m2 CLR
06:30 71.3 °F 68.5 °F 30.09 in Calm     91% 0.00 in WeatherDisplay:10.37 W/m2 CLR
06:35 71.3 °F 68.5 °F 30.09 in Calm     91% 0.00 in WeatherDisplay:10.37 W/m2 CLR
06:40 71.3 °F 68.5 °F 30.09 in Calm     91% 0.00 in WeatherDisplay:10.37 W/m2 CLR
06:45 71.3 °F 68.5 °F 30.09 in Calm     91% 0.00 in WeatherDisplay:10.37 W/m2 CLR
06:50 71.3 °F 68.5 °F 30.09 in Calm     91% 0.00 in WeatherDisplay:10.37 W/m2 CLR
06:55 71.2 °F 68.4 °F 30.09 in Calm     91% 0.00 in WeatherDisplay:10.37 W/m2 CLR
07:00 71.1 °F 68.4 °F 30.10 in Calm     91% 0.00 in WeatherDisplay:10.37 W/m2 CLR
07:05 71.1 °F 68.3 °F 30.10 in Calm     91% 0.00 in WeatherDisplay:10.37 W/m2 CLR
07:10 71.0 °F 68.3 °F 30.10 in Calm     91% 0.00 in WeatherDisplay:10.37 W/m2 CLR
07:15 71.0 °F 68.2 °F 30.10 in Calm     91% 0.00 in WeatherDisplay:10.37 W/m2 CLR
07:20 70.9 °F 68.2 °F 30.10 in Calm     91% 0.00 in WeatherDisplay:10.37 W/m2 FEW
07:25 70.9 °F 68.5 °F 30.10 in Calm     92% 0.00 in WeatherDisplay:10.37 W/m2 FEW
07:30 70.9 °F 68.5 °F 30.10 in Calm     92% 0.00 in WeatherDisplay:10.37 W/m2 FEW
07:35 71.0 °F 68.6 °F 30.10 in Calm     92% 0.00 in WeatherDisplay:10.37 W/m2 FEW
07:40 71.1 °F 68.7 °F 30.10 in Calm     92% 0.00 in WeatherDisplay:10.37 W/m2 FEW
07:45 71.2 °F 68.8 °F 30.10 in Calm     92% 0.00 in WeatherDisplay:10.37 W/m2 FEW
07:55 71.4 °F 69.0 °F 30.10 in Calm     92% 0.00 in WeatherDisplay:10.37 W/m2 FEW
08:00 71.6 °F 69.2 °F 30.10 in Calm     92% 0.00 in WeatherDisplay:10.37 W/m2 FEW
08:05 71.8 °F 69.3 °F 30.10 in Calm     92% 0.00 in WeatherDisplay:10.37 W/m2 FEW
08:10 72.0 °F 69.5 °F 30.11 in Calm     92% 0.00 in WeatherDisplay:10.37 W/m2 FEW
08:15 72.2 °F 69.7 °F 30.11 in Calm     92% 0.00 in WeatherDisplay:10.37 W/m2 FEW
08:20 72.4 °F 69.9 °F 30.10 in Calm     92% 0.00 in WeatherDisplay:10.37 W/m2 CLR
08:25 72.7 °F 70.2 °F 30.11 in Calm     92% 0.00 in WeatherDisplay:10.37 W/m2 CLR
08:30 73.0 °F 70.5 °F 30.11 in Calm     92% 0.00 in WeatherDisplay:10.37 W/m2 CLR
08:35 73.4 °F 70.6 °F 30.11 in Calm     91% 0.00 in WeatherDisplay:10.37 W/m2 CLR
08:40 73.9 °F 71.1 °F 30.12 in Calm     91% 0.00 in WeatherDisplay:10.37 W/m2 CLR
08:45 74.3 °F 71.5 °F 30.12 in Calm     91% 0.00 in WeatherDisplay:10.37 W/m2 CLR
08:50 74.6 °F 71.5 °F 30.12 in Calm     90% 0.00 in WeatherDisplay:10.37 W/m2 CLR
08:55 75.0 °F 71.2 °F 30.12 in Calm   1.0 mph 88% 0.00 in WeatherDisplay:10.37 W/m2 CLR
09:00 75.5 °F 71.7 °F 30.12 in Calm   1.0 mph 88% 0.00 in WeatherDisplay:10.37 W/m2 CLR
09:05 75.9 °F 71.8 °F 30.12 in Calm     87% 0.00 in WeatherDisplay:10.37 W/m2 CLR
09:10 76.5 °F 72.0 °F 30.12 in Calm     86% 0.00 in WeatherDisplay:10.37 W/m2 CLR
09:15 76.9 °F 72.4 °F 30.12 in Calm     86% 0.00 in WeatherDisplay:10.37 W/m2 CLR
09:20 77.4 °F 72.1 °F 30.12 in Calm   1.0 mph 84% 0.00 in WeatherDisplay:10.37 W/m2 CLR
09:25 77.9 °F 72.7 °F 30.12 in Calm     84% 0.00 in WeatherDisplay:10.37 W/m2 CLR
09:30 78.3 °F 72.7 °F 30.12 in Calm     83% 0.00 in WeatherDisplay:10.37 W/m2 CLR
09:35 78.6 °F 73.0 °F 30.11 in Calm   1.0 mph 83% 0.00 in WeatherDisplay:10.37 W/m2 CLR
09:40 78.9 °F 72.9 °F 30.11 in Calm     82% 0.00 in WeatherDisplay:10.37 W/m2 CLR
09:45 79.3 °F 73.3 °F 30.11 in Calm   1.0 mph 82% 0.00 in WeatherDisplay:10.37 W/m2 CLR
09:50 79.7 °F 73.0 °F 30.11 in West 1.0 mph 2.0 mph 80% 0.00 in WeatherDisplay:10.37 W/m2 CLR
09:55 80.2 °F 73.5 °F 30.11 in Calm   1.0 mph 80% 0.00 in WeatherDisplay:10.37 W/m2 CLR
10:00 80.8 °F 73.3 °F 30.11 in Calm   1.0 mph 78% 0.00 in WeatherDisplay:10.37 W/m2 CLR
10:05 81.5 °F 73.6 °F 30.11 in Calm   2.0 mph 77% 0.00 in WeatherDisplay:10.37 W/m2 CLR
10:10 82.0 °F 74.1 °F 30.12 in Calm   1.0 mph 77% 0.00 in WeatherDisplay:10.37 W/m2 CLR
10:15 82.7 °F 74.4 °F 30.11 in SW 1.0 mph 2.0 mph 76% 0.00 in WeatherDisplay:10.37 W/m2 CLR
10:20 82.9 °F 74.2 °F 30.12 in Calm   1.0 mph 75% 0.00 in WeatherDisplay:10.37 W/m2 FEW
10:25 83.2 °F 74.4 °F 30.12 in Calm   1.0 mph 75% 0.00 in WeatherDisplay:10.37 W/m2 FEW
10:30 83.4 °F 74.6 °F 30.12 in Calm   1.0 mph 75% 0.00 in WeatherDisplay:10.37 W/m2 FEW
10:35 83.5 °F 73.9 °F 30.12 in Calm   1.0 mph 73% 0.00 in WeatherDisplay:10.37 W/m2 FEW
10:40 83.4 °F 73.4 °F 30.12 in SW 1.0 mph 2.0 mph 72% 0.00 in WeatherDisplay:10.37 W/m2 FEW
10:45 83.4 °F 73.9 °F 30.12 in Calm     73% 0.00 in WeatherDisplay:10.37 W/m2 FEW
10:50 83.8 °F 74.2 °F 30.12 in Calm   3.0 mph 73% 0.00 in WeatherDisplay:10.37 W/m2 FEW
10:55 83.9 °F 73.1 °F 30.12 in SW 1.0 mph 2.0 mph 70% 0.00 in WeatherDisplay:10.37 W/m2 FEW
11:00 83.7 °F 73.3 °F 30.12 in SW 1.0 mph 2.0 mph 71% 0.00 in WeatherDisplay:10.37 W/m2 FEW
11:05 83.9 °F 74.3 °F 30.12 in Calm   2.0 mph 73% 0.00 in WeatherDisplay:10.37 W/m2 FEW
11:10 84.1 °F 74.1 °F 30.12 in Calm   2.0 mph 72% 0.00 in WeatherDisplay:10.37 W/m2 FEW
11:15 84.3 °F 73.0 °F 30.12 in SSW 1.0 mph 3.0 mph 69% 0.00 in WeatherDisplay:10.37 W/m2 FEW
11:20 83.9 °F 73.1 °F 30.12 in Calm   1.0 mph 70% 0.00 in WeatherDisplay:10.37 W/m2 SCT
11:25 83.6 °F 72.4 °F 30.11 in Calm   1.0 mph 69% 0.00 in WeatherDisplay:10.37 W/m2 SCT
11:30 83.5 °F 73.5 °F 30.11 in Calm     72% 0.00 in WeatherDisplay:10.37 W/m2 SCT
11:40 83.9 °F 71.8 °F 30.11 in Calm   1.0 mph 67% 0.00 in WeatherDisplay:10.37 W/m2 SCT
11:45 84.6 °F 73.3 °F 30.11 in Calm   2.0 mph 69% 0.00 in WeatherDisplay:10.37 W/m2 SCT
11:50 85.2 °F 72.1 °F 30.11 in Calm   1.0 mph 65% 0.00 in WeatherDisplay:10.37 W/m2 SCT
11:55 85.5 °F 71.9 °F 30.11 in Calm   1.0 mph 64% 0.00 in WeatherDisplay:10.37 W/m2 SCT
12:00 85.3 °F 73.1 °F 30.11 in Calm     67% 0.00 in WeatherDisplay:10.37 W/m2 SCT
12:05 85.3 °F 72.2 °F 30.11 in Calm   1.0 mph 65% 0.00 in WeatherDisplay:10.37 W/m2 SCT
12:10 86.0 °F 71.5 °F 30.11 in Calm   2.0 mph 62% 0.00 in WeatherDisplay:10.37 W/m2 SCT
12:15 86.6 °F 71.1 °F 30.11 in WNW 1.0 mph 2.0 mph 60% 0.00 in WeatherDisplay:10.37 W/m2 SCT
12:20 87.4 °F 72.3 °F 30.10 in Calm   1.0 mph 61% 0.00 in WeatherDisplay:10.37 W/m2 SCT
12:25 87.8 °F 72.7 °F 30.10 in Calm   1.0 mph 61% 0.00 in WeatherDisplay:10.37 W/m2 SCT
12:30 88.2 °F 71.0 °F 30.10 in Calm   3.0 mph 57% 0.00 in WeatherDisplay:10.37 W/m2 SCT
12:40 89.1 °F 72.4 °F 30.10 in Calm   2.0 mph 58% 0.00 in WeatherDisplay:10.37 W/m2 SCT
12:45 89.2 °F 70.4 °F 30.10 in South 1.0 mph 3.0 mph 54% 0.00 in WeatherDisplay:10.37 W/m2 SCT
12:50 89.7 °F 71.4 °F 30.10 in Calm     55% 0.00 in WeatherDisplay:10.37 W/m2 SCT
12:55 90.4 °F 71.0 °F 30.10 in Calm   1.0 mph 53% 0.00 in WeatherDisplay:10.37 W/m2 SCT
13:00 91.0 °F 71.0 °F 30.09 in Calm   1.0 mph 52% 0.00 in WeatherDisplay:10.37 W/m2 SCT
13:05 91.2 °F 70.6 °F 30.09 in Calm   2.0 mph 51% 0.00 in WeatherDisplay:10.37 W/m2 SCT
13:10 91.8 °F 72.2 °F 30.09 in Calm   1.0 mph 53% 0.00 in WeatherDisplay:10.37 W/m2 SCT
13:15 92.0 °F 70.7 °F 30.09 in Calm   1.0 mph 50% 0.00 in WeatherDisplay:10.37 W/m2 SCT
13:20 92.8 °F 70.8 °F 30.09 in Calm   1.0 mph 49% 0.00 in WeatherDisplay:10.37 W/m2 BKN
13:25 93.4 °F 69.5 °F 30.08 in West 1.0 mph 2.0 mph 46% 0.00 in WeatherDisplay:10.37 W/m2 BKN
13:30 93.3 °F 70.1 °F 30.08 in Calm   2.0 mph 47% 0.00 in WeatherDisplay:10.37 W/m2 BKN
13:40 93.8 °F 70.5 °F 30.08 in Calm   1.0 mph 47% 0.00 in WeatherDisplay:10.37 W/m2 BKN
13:45 94.2 °F 70.2 °F 30.08 in Calm   1.0 mph 46% 0.00 in WeatherDisplay:10.37 W/m2 BKN
13:50 94.1 °F 67.5 °F 30.08 in Calm   2.0 mph 42% 0.00 in WeatherDisplay:10.37 W/m2 BKN
13:55 93.4 °F 67.5 °F 30.07 in Calm   1.0 mph 43% 0.00 in WeatherDisplay:10.37 W/m2 BKN
14:00 93.7 °F 69.8 °F 30.07 in Calm   1.0 mph 46% 0.00 in WeatherDisplay:10.37 W/m2 BKN
14:05 94.5 °F 69.9 °F 30.07 in Calm   1.0 mph 45% 0.00 in WeatherDisplay:10.37 W/m2 BKN
14:10 94.0 °F 68.8 °F 30.07 in Calm     44% 0.00 in WeatherDisplay:10.37 W/m2 BKN
14:15 93.8 °F 67.9 °F 30.06 in Calm   1.0 mph 43% 0.00 in WeatherDisplay:10.37 W/m2 BKN
14:20 93.5 °F 70.2 °F 30.06 in Calm   1.0 mph 47% 0.00 in WeatherDisplay:10.37 W/m2 SCT
14:30 92.9 °F 69.1 °F 30.05 in Calm   1.0 mph 46% 0.00 in WeatherDisplay:10.37 W/m2 SCT
14:40 92.4 °F 67.3 °F 30.05 in Calm   1.0 mph 44% 0.00 in WeatherDisplay:10.37 W/m2 SCT
14:45 92.0 °F 67.6 °F 30.04 in Calm   2.0 mph 45% 0.00 in WeatherDisplay:10.37 W/m2 SCT
14:50 91.4 °F 67.7 °F 30.04 in Calm   2.0 mph 46% 0.00 in WeatherDisplay:10.37 W/m2 SCT
14:55 91.2 °F 68.2 °F 30.04 in Calm   1.0 mph 47% 0.00 in WeatherDisplay:10.37 W/m2 SCT
15:00 90.8 °F 68.4 °F 30.04 in Calm     48% 0.00 in WeatherDisplay:10.37 W/m2 SCT
15:05 90.3 °F 69.2 °F 30.04 in Calm     50% 0.00 in WeatherDisplay:10.37 W/m2 SCT
15:10 90.0 °F 68.9 °F 30.04 in Calm     50% 0.00 in WeatherDisplay:10.37 W/m2 SCT
15:15 89.9 °F 67.6 °F 30.03 in Calm   1.0 mph 48% 0.00 in WeatherDisplay:10.37 W/m2 SCT
15:20 89.9 °F 69.9 °F 30.03 in Calm   2.0 mph 52% 0.00 in WeatherDisplay:10.37 W/m2 BKN
15:25 90.3 °F 69.7 °F 30.02 in Calm     51% 0.00 in WeatherDisplay:10.37 W/m2 BKN
15:30 90.6 °F 68.8 °F 30.02 in Calm   1.0 mph 49% 0.00 in WeatherDisplay:10.37 W/m2 BKN
15:40 90.0 °F 66.4 °F 30.02 in Calm   2.0 mph 46% 0.00 in WeatherDisplay:10.37 W/m2 BKN
15:45 89.9 °F 65.7 °F 30.02 in Calm   1.0 mph 45% 0.00 in WeatherDisplay:10.37 W/m2 BKN
15:50 90.2 °F 67.9 °F 30.01 in Calm   1.0 mph 48% 0.00 in WeatherDisplay:10.37 W/m2 BKN
15:55 90.3 °F 67.9 °F 30.01 in Calm   1.0 mph 48% 0.00 in WeatherDisplay:10.37 W/m2 BKN
16:00 90.5 °F 67.5 °F 30.01 in Calm   1.0 mph 47% 0.00 in WeatherDisplay:10.37 W/m2 BKN
16:10 89.3 °F 67.1 °F 30.01 in Calm   1.0 mph 48% 0.00 in WeatherDisplay:10.37 W/m2 BKN
16:20 89.7 °F 66.8 °F 30.00 in Calm   1.0 mph 47% 0.00 in WeatherDisplay:10.37 W/m2 SCT
16:25 89.9 °F 67.0 °F 30.00 in Calm   1.0 mph 47% 0.00 in WeatherDisplay:10.37 W/m2 SCT
16:30 89.8 °F 67.5 °F 30.00 in Calm   1.0 mph 48% 0.00 in WeatherDisplay:10.37 W/m2 SCT
16:40 89.6 °F 69.6 °F 29.99 in Calm   1.0 mph 52% 0.00 in WeatherDisplay:10.37 W/m2 SCT
16:45 89.6 °F 68.5 °F 29.99 in Calm     50% 0.00 in WeatherDisplay:10.37 W/m2 SCT
16:50 89.5 °F 67.2 °F 29.99 in Calm   1.0 mph 48% 0.00 in WeatherDisplay:10.37 W/m2 SCT
16:55 89.4 °F 67.7 °F 29.99 in Calm     49% 0.00 in WeatherDisplay:10.37 W/m2 SCT
17:00 89.1 °F 68.1 °F 29.99 in Calm   2.0 mph 50% 0.00 in WeatherDisplay:10.37 W/m2 SCT
17:10 88.8 °F 69.5 °F 29.99 in Calm   1.0 mph 53% 0.00 in WeatherDisplay:10.37 W/m2 SCT
17:15 89.0 °F 69.7 °F 29.98 in Calm     53% 0.00 in WeatherDisplay:10.37 W/m2 SCT
17:20 89.6 °F 69.0 °F 29.98 in Calm   1.0 mph 51% 0.00 in WeatherDisplay:10.37 W/m2 FEW
17:25 90.0 °F 68.9 °F 29.98 in Calm   1.0 mph 50% 0.00 in WeatherDisplay:10.37 W/m2 FEW
17:30 90.4 °F 68.0 °F 29.98 in Calm   1.0 mph 48% 0.00 in WeatherDisplay:10.37 W/m2 FEW
17:40 90.7 °F 68.9 °F 29.98 in Calm     49% 0.00 in WeatherDisplay:10.37 W/m2 FEW
17:45 90.5 °F 68.7 °F 29.98 in Calm   3.0 mph 49% 0.00 in WeatherDisplay:10.37 W/m2 FEW
17:50 90.0 °F 68.3 °F 29.98 in NNE 1.0 mph 2.0 mph 49% 0.00 in WeatherDisplay:10.37 W/m2 FEW
17:55 89.5 °F 69.0 °F 29.98 in Calm   2.0 mph 51% 0.00 in WeatherDisplay:10.37 W/m2 FEW
18:00 89.1 °F 68.6 °F 29.98 in Calm   1.0 mph 51% 0.00 in WeatherDisplay:10.37 W/m2 FEW
18:05 88.8 °F 70.0 °F 29.98 in Calm   1.0 mph 54% 0.00 in WeatherDisplay:10.37 W/m2 FEW
18:10 88.4 °F 69.1 °F 29.97 in Calm     53% 0.00 in WeatherDisplay:10.37 W/m2 FEW
18:15 88.1 °F 69.9 °F 29.97 in Calm     55% 0.00 in WeatherDisplay:10.37 W/m2 FEW
18:20 87.8 °F 70.6 °F 29.97 in Calm   2.0 mph 57% 0.00 in WeatherDisplay:10.37 W/m2 FEW
18:25 87.5 °F 69.3 °F 29.97 in Calm   1.0 mph 55% 0.00 in WeatherDisplay:10.37 W/m2 FEW
18:30 87.4 °F 68.7 °F 29.97 in Calm   1.0 mph 54% 0.00 in WeatherDisplay:10.37 W/m2 FEW
18:35 87.2 °F 69.6 °F 29.97 in Calm     56% 0.00 in WeatherDisplay:10.37 W/m2 FEW
18:40 87.0 °F 69.4 °F 29.97 in Calm     56% 0.00 in WeatherDisplay:10.37 W/m2 FEW
18:45 86.6 °F 69.5 °F 29.97 in Calm     57% 0.00 in WeatherDisplay:10.37 W/m2 FEW
18:50 86.3 °F 69.7 °F 29.97 in Calm   1.0 mph 58% 0.00 in WeatherDisplay:10.37 W/m2 FEW
18:55 86.2 °F 69.7 °F 29.97 in Calm   1.0 mph 58% 0.00 in WeatherDisplay:10.37 W/m2 FEW
19:00 86.1 °F 69.6 °F 29.97 in Calm   1.0 mph 58% 0.00 in WeatherDisplay:10.37 W/m2 FEW
19:05 86.0 °F 70.0 °F 29.97 in Calm     59% 0.00 in WeatherDisplay:10.37 W/m2 FEW
19:10 85.7 °F 69.7 °F 29.97 in Calm   1.0 mph 59% 0.00 in WeatherDisplay:10.37 W/m2 FEW
19:15 85.5 °F 70.0 °F 29.96 in Calm   1.0 mph 60% 0.00 in WeatherDisplay:10.37 W/m2 FEW
19:20 85.4 °F 69.9 °F 29.96 in Calm     60% 0.00 in WeatherDisplay:10.37 W/m2 FEW
19:25 85.2 °F 69.7 °F 29.96 in Calm     60% 0.00 in WeatherDisplay:10.37 W/m2 FEW
19:30 85.0 °F 70.1 °F 29.97 in Calm     61% 0.00 in WeatherDisplay:10.37 W/m2 FEW
19:35 84.8 °F 69.9 °F 29.97 in Calm     61% 0.00 in WeatherDisplay:10.37 W/m2 FEW
19:40 84.6 °F 69.7 °F 29.97 in Calm     61% 0.00 in WeatherDisplay:10.37 W/m2 FEW
19:45 84.4 °F 70.0 °F 29.97 in Calm     62% 0.00 in WeatherDisplay:10.37 W/m2 FEW
19:50 84.2 °F 70.2 °F 29.97 in Calm   2.0 mph 63% 0.00 in WeatherDisplay:10.37 W/m2 FEW
19:55 84.0 °F 70.0 °F 29.97 in Calm     63% 0.00 in WeatherDisplay:10.37 W/m2 FEW
20:00 83.8 °F 70.3 °F 29.97 in Calm     64% 0.00 in WeatherDisplay:10.37 W/m2 FEW
20:05 83.6 °F 70.1 °F 29.97 in Calm     64% 0.00 in WeatherDisplay:10.37 W/m2 FEW
20:10 83.3 °F 70.3 °F 29.97 in Calm     65% 0.00 in WeatherDisplay:10.37 W/m2 FEW
20:15 83.2 °F 70.2 °F 29.97 in Calm     65% 0.00 in WeatherDisplay:10.37 W/m2 FEW
20:20 83.0 °F 70.4 °F 29.97 in Calm     66% 0.00 in WeatherDisplay:10.37 W/m2 FEW
20:25 82.8 °F 70.3 °F 29.97 in Calm     66% 0.00 in WeatherDisplay:10.37 W/m2 FEW
20:30 82.6 °F 71.0 °F 29.97 in Calm     68% 0.00 in WeatherDisplay:10.37 W/m2 FEW
20:40 82.1 °F 70.5 °F 29.97 in Calm     68% 0.00 in WeatherDisplay:10.37 W/m2 FEW
20:45 81.9 °F 70.7 °F 29.97 in Calm     69% 0.00 in WeatherDisplay:10.37 W/m2 FEW
20:50 81.7 °F 70.6 °F 29.97 in Calm     69% 0.00 in WeatherDisplay:10.37 W/m2 FEW
20:55 81.5 °F 70.8 °F 29.97 in Calm     70% 0.00 in WeatherDisplay:10.37 W/m2 FEW
21:00 81.4 °F 70.7 °F 29.97 in Calm     70% 0.00 in WeatherDisplay:10.37 W/m2 FEW
21:10 81.0 °F 70.7 °F 29.97 in Calm     71% 0.00 in WeatherDisplay:10.37 W/m2 FEW
21:15 80.7 °F 70.8 °F 29.97 in Calm     72% 0.00 in WeatherDisplay:10.37 W/m2 FEW
21:20 80.6 °F 71.1 °F 29.97 in Calm     73% 0.00 in WeatherDisplay:10.37 W/m2 FEW
21:25 80.4 °F 70.9 °F 29.97 in Calm     73% 0.00 in WeatherDisplay:10.37 W/m2 FEW
21:30 80.2 °F 71.2 °F 29.97 in Calm     74% 0.00 in WeatherDisplay:10.37 W/m2 FEW
21:40 79.8 °F 71.2 °F 29.97 in Calm     75% 0.00 in WeatherDisplay:10.37 W/m2 FEW
21:45 79.7 °F 71.1 °F 29.97 in Calm     75% 0.00 in WeatherDisplay:10.37 W/m2 FEW
21:50 79.5 °F 70.9 °F 29.97 in Calm     75% 0.00 in WeatherDisplay:10.37 W/m2 FEW
21:55 79.4 °F 70.7 °F 29.97 in Calm     75% 0.00 in WeatherDisplay:10.37 W/m2 FEW
22:00 79.2 °F 71.0 °F 29.97 in Calm     76% 0.00 in WeatherDisplay:10.37 W/m2 FEW
22:10 78.9 °F 71.1 °F 29.98 in Calm     77% 0.00 in WeatherDisplay:10.37 W/m2 FEW
22:15 78.8 °F 71.0 °F 29.98 in Calm     77% 0.00 in WeatherDisplay:10.37 W/m2 FEW
22:20 78.7 °F 71.3 °F 29.98 in Calm     78% 0.00 in WeatherDisplay:10.37 W/m2 FEW
22:25 78.6 °F 71.2 °F 29.98 in Calm     78% 0.00 in WeatherDisplay:10.37 W/m2 FEW
22:30 78.4 °F 71.0 °F 29.98 in Calm     78% 0.00 in WeatherDisplay:10.37 W/m2 FEW
22:40 78.2 °F 71.2 °F 29.99 in Calm     79% 0.00 in WeatherDisplay:10.37 W/m2 FEW
22:45 78.2 °F 71.2 °F 29.99 in Calm     79% 0.00 in WeatherDisplay:10.37 W/m2 FEW
22:50 78.2 °F 71.1 °F 29.99 in Calm     79% 0.00 in WeatherDisplay:10.37 W/m2 FEW
22:55 78.1 °F 71.4 °F 29.99 in Calm     80% 0.00 in WeatherDisplay:10.37 W/m2 FEW
23:00 78.0 °F 71.3 °F 29.99 in Calm     80% 0.00 in WeatherDisplay:10.37 W/m2 FEW
23:10 78.0 °F 71.3 °F 29.99 in Calm     80% 0.00 in WeatherDisplay:10.37 W/m2 FEW
23:15 78.0 °F 71.3 °F 29.99 in Calm     80% 0.00 in WeatherDisplay:10.37 W/m2 FEW
23:20 77.9 °F 71.6 °F 29.99 in Calm     81% 0.00 in WeatherDisplay:10.37 W/m2 CLR
23:25 77.8 °F 71.5 °F 30.00 in Calm     81% 0.00 in WeatherDisplay:10.37 W/m2 CLR
23:30 77.8 °F 71.5 °F 29.99 in Calm     81% 0.00 in WeatherDisplay:10.37 W/m2 CLR
23:40 77.6 °F 71.3 °F 29.99 in Calm     81% 0.00 in WeatherDisplay:10.37 W/m2 CLR
23:45 77.4 °F 71.5 °F 29.99 in Calm     82% 0.00 in WeatherDisplay:10.37 W/m2 CLR
23:50 77.3 °F 71.4 °F 30.00 in Calm     82% 0.00 in WeatherDisplay:10.37 W/m2 CLR
23:55 77.1 °F 71.2 °F 30.00 in Calm     82% 0.00 in WeatherDisplay:10.37 W/m2 CLR
Piedmont Bend
Compliments of Weather Underground - 4 mb